| time (UTC) | temp F | wind direction | speed knots | gust knots | rain 1hr in | rain 24hr in | rain mn in | humidity % | barometer mb |
| 20260504232013 | 50 | 238 | 2.6 | 7.8 | 0.00 | 0.00 | 0.57 | 67 | 1002.0 |
| 20260504231519 | 50 | 249 | 7.8 | 8.7 | 0.00 | 0.00 | 0.57 | 66 | 1002.0 |
| 20260504231014 | 51 | 254 | 2.6 | 9.6 | 0.00 | 0.00 | 0.57 | 66 | 1002.0 |
| 20260504230512 | 51 | 252 | 3.5 | 8.7 | 0.00 | 0.00 | 0.57 | 65 | 1002.0 |
| 20260504230013 | 51 | 258 | 5.2 | 9.6 | 0.00 | 0.00 | 0.57 | 64 | 1002.0 |
| 20260504225512 | 51 | 188 | 5.2 | 11.3 | 0.00 | 0.00 | 0.57 | 63 | 1002.0 |
| 20260504225011 | 51 | 245 | 8.7 | 10.4 | 0.00 | 0.00 | 0.57 | 61 | 1002.0 |
| 20260504224512 | 52 | 140 | 3.5 | 9.6 | 0.00 | 0.00 | 0.57 | 59 | 1002.0 |
| 20260504224012 | 52 | 255 | 7.0 | 13.0 | 0.00 | 0.00 | 0.57 | 57 | 1002.0 |
| 20260504223511 | 52 | 221 | 4.3 | 7.8 | 0.00 | 0.00 | 0.57 | 55 | 1002.0 |
| 20260504223013 | 53 | 144 | 4.3 | 11.3 | 0.00 | 0.00 | 0.57 | 53 | 1002.0 |
| 20260504222513 | 53 | 231 | 3.5 | 6.1 | 0.00 | 0.00 | 0.57 | 51 | 1002.0 |
| 20260504222020 | 53 | 240 | 4.3 | 13.9 | 0.00 | 0.00 | 0.57 | 50 | 1002.0 |
| 20260504221512 | 54 | 227 | 3.5 | 7.8 | 0.00 | 0.00 | 0.57 | 49 | 1002.0 |
| 20260504221012 | 54 | 203 | 4.3 | 10.4 | 0.00 | 0.00 | 0.57 | 47 | 1001.0 |
| 20260504220512 | 54 | 206 | 2.6 | 12.2 | 0.00 | 0.00 | 0.57 | 47 | 1001.0 |
| 20260504220012 | 55 | 279 | 6.1 | 10.4 | 0.00 | 0.00 | 0.57 | 46 | 1001.0 |
| 20260504215512 | 55 | 126 | 1.7 | 11.3 | 0.00 | 0.00 | 0.57 | 44 | 1001.0 |
| 20260504215013 | 55 | 247 | 5.2 | 12.2 | 0.00 | 0.00 | 0.57 | 44 | 1001.0 |
| 20260504214511 | 55 | 258 | 13.0 | 21.7 | 0.00 | 0.00 | 0.57 | 43 | 1001.0 |
| 20260504214011 | 55 | 269 | 7.8 | 18.2 | 0.00 | 0.00 | 0.57 | 44 | 1001.0 |
| 20260504213512 | 55 | 256 | 7.8 | 7.8 | 0.00 | 0.00 | 0.57 | 45 | 1001.0 |
| 20260504213013 | 55 | 214 | 4.3 | 12.2 | 0.00 | 0.00 | 0.57 | 44 | 1001.0 |
| 20260504212516 | 55 | 223 | 6.1 | 13.0 | 0.00 | 0.00 | 0.57 | 44 | 1001.0 |
| 20260504212013 | 56 | 255 | 9.6 | 20.0 | 0.00 | 0.00 | 0.57 | 43 | 1001.0 |
| 20260504211513 | 56 | 233 | 4.3 | 8.7 | 0.00 | 0.00 | 0.57 | 43 | 1001.0 |
| 20260504211011 | 57 | 248 | 7.0 | 12.2 | 0.00 | 0.00 | 0.57 | 41 | 1001.0 |
| 20260504210514 | 57 | 234 | 4.3 | 13.9 | 0.00 | 0.00 | 0.57 | 40 | 1001.0 |
| 20260504210014 | 58 | 227 | 6.1 | 13.0 | 0.00 | 0.00 | 0.57 | 38 | 1001.0 |
| 20260504205511 | 59 | 231 | 2.6 | 7.8 | 0.00 | 0.00 | 0.57 | 39 | 1001.0 |
| 20260504205014 | 59 | 241 | 5.2 | 8.7 | 0.00 | 0.00 | 0.57 | 39 | 1001.0 |
| 20260504204514 | 61 | 212 | 2.6 | 8.7 | 0.00 | 0.00 | 0.57 | 36 | 1001.0 |
| 20260504204012 | 61 | 234 | 2.6 | 6.1 | 0.00 | 0.00 | 0.57 | 37 | 1001.0 |
| 20260504203511 | 62 | 238 | 4.3 | 11.3 | 0.00 | 0.00 | 0.57 | 36 | 1000.0 |
| 20260504203015 | 63 | 245 | 13.9 | 16.5 | 0.00 | 0.00 | 0.57 | 34 | 1001.0 |
| 20260504202514 | 64 | 212 | 4.3 | 13.0 | 0.00 | 0.00 | 0.57 | 33 | 1000.0 |
| 20260504202012 | 64 | 249 | 5.2 | 10.4 | 0.00 | 0.00 | 0.57 | 31 | 1000.0 |
| 20260504201511 | 63 | 184 | 3.5 | 13.0 | 0.00 | 0.00 | 0.57 | 33 | 1000.0 |
| 20260504201012 | 62 | 253 | 8.7 | 14.8 | 0.00 | 0.00 | 0.57 | 31 | 1000.0 |
| 20260504200513 | 62 | 221 | 4.3 | 16.5 | 0.00 | 0.00 | 0.57 | 32 | 1000.0 |
| 20260504200013 | 61 | 254 | 7.8 | 9.6 | 0.00 | 0.00 | 0.57 | 36 | 1000.0 |
| 20260504195513 | 61 | 233 | 2.6 | 11.3 | 0.00 | 0.00 | 0.57 | 35 | 1000.0 |
| 20260504195015 | 61 | 248 | 6.1 | 15.6 | 0.00 | 0.00 | 0.57 | 33 | 1000.0 |
| 20260504194515 | 61 | 250 | 7.0 | 12.2 | 0.00 | 0.00 | 0.57 | 34 | 1000.0 |
| 20260504194013 | 61 | 242 | 7.0 | 11.3 | 0.00 | 0.00 | 0.57 | 36 | 1000.0 |
| 20260504193514 | 61 | 238 | 6.1 | 18.2 | 0.00 | 0.00 | 0.57 | 33 | 1000.0 |
| 20260504193013 | 62 | 261 | 7.0 | 20.0 | 0.00 | 0.00 | 0.57 | 33 | 1000.0 |
| 20260504192120 | 61 | 271 | 7.8 | 10.4 | 0.00 | 0.00 | 0.57 | 35 | 1000.0 |
| 20260504191512 | 60 | 244 | 4.3 | 15.6 | 0.00 | 0.00 | 0.57 | 35 | 1000.0 |
| 20260504191014 | 60 | 247 | 8.7 | 12.2 | 0.00 | 0.00 | 0.57 | 35 | 1000.0 |
| 20260504190512 | 61 | 248 | 12.2 | 15.6 | 0.00 | 0.00 | 0.57 | 34 | 1000.0 |
| 20260504190013 | 61 | 224 | 4.3 | 12.2 | 0.00 | 0.00 | 0.57 | 34 | 1000.0 |
| 20260504185514 | 61 | 231 | 7.8 | 12.2 | 0.00 | 0.00 | 0.57 | 37 | 1000.0 |
| 20260504185012 | 61 | 241 | 5.2 | 10.4 | 0.00 | 0.00 | 0.57 | 37 | 1000.0 |
| 20260504184515 | 60 | 242 | 4.3 | 12.2 | 0.00 | 0.00 | 0.57 | 36 | 1000.0 |
| 20260504184013 | 59 | 249 | 11.3 | 12.2 | 0.00 | 0.00 | 0.57 | 40 | 1000.0 |
| 20260504183513 | 59 | 218 | 11.3 | 12.2 | 0.00 | 0.00 | 0.57 | 39 | 1000.0 |
| 20260504182514 | 59 | 226 | 5.2 | 12.2 | 0.00 | 0.00 | 0.57 | 40 | 1000.0 |
| 20260504182014 | 58 | 279 | 4.3 | 19.1 | 0.00 | 0.00 | 0.57 | 39 | 1000.0 |
| 20260504181514 | 58 | 267 | 7.8 | 10.4 | 0.00 | 0.00 | 0.57 | 45 | 1000.0 |
| 20260504181014 | 58 | 210 | 10.4 | 15.6 | 0.00 | 0.00 | 0.57 | 44 | 1000.0 |
| 20260504180513 | 58 | 200 | 7.8 | 10.4 | 0.00 | 0.00 | 0.57 | 45 | 1000.0 |
| 20260504175549 | 57 | 240 | 7.8 | 12.2 | 0.00 | 0.00 | 0.57 | 45 | 1000.0 |
| 20260504175013 | 56 | 247 | 8.7 | 9.6 | 0.00 | 0.00 | 0.57 | 49 | 1000.0 |
| 20260504174513 | 56 | 211 | 14.8 | 16.5 | 0.00 | 0.00 | 0.57 | 47 | 1000.0 |
| 20260504174013 | 56 | 225 | 9.6 | 15.6 | 0.00 | 0.00 | 0.57 | 48 | 1000.0 |
| 20260504173515 | 56 | 265 | 7.0 | 15.6 | 0.00 | 0.00 | 0.57 | 48 | 1000.0 |
| 20260504173013 | 56 | 239 | 7.8 | 14.8 | 0.00 | 0.00 | 0.57 | 47 | 1000.0 |
| 20260504172514 | 56 | 252 | 12.2 | 21.7 | 0.00 | 0.00 | 0.57 | 47 | 1000.0 |
| 20260504172014 | 57 | 230 | 13.0 | 15.6 | 0.00 | 0.00 | 0.57 | 50 | 1000.0 |
| 20260504171514 | 56 | 211 | 8.7 | 10.4 | 0.00 | 0.00 | 0.57 | 49 | 1000.0 |
| 20260504171016 | 56 | 157 | 19.1 | 20.0 | 0.00 | 0.00 | 0.57 | 49 | 1000.0 |
| 20260504170514 | 56 | 277 | 10.4 | 11.3 | 0.00 | 0.00 | 0.57 | 50 | 1000.0 |
| 20260504151013 | 53 | 240 | 8.7 | 17.4 | 0.00 | 0.00 | 0.57 | 59 | 999.0 |
| 20260504150515 | 53 | 329 | 3.5 | 11.3 | 0.00 | 0.00 | 0.57 | 62 | 999.0 |
| 20260504140625 | 48 | 277 | 13.0 | 17.4 | 0.00 | 0.00 | 0.57 | 74 | 998.0 |
| 20260504130513 | 45 | 251 | 3.5 | 13.9 | 0.00 | 0.00 | 0.57 | 81 | 998.0 |
| 20260504110513 | 41 | 248 | 5.2 | 9.6 | 0.02 | 0.00 | 0.57 | 93 | 996.0 |
| 20260504100516 | 40 | 5 | 5.2 | 20.9 | 0.00 | 0.00 | 0.56 | 95 | 995.0 |
| 20260504081513 | 38 | 354 | 7.8 | 22.6 | 0.09 | 0.00 | 0.45 | 96 | 992.0 |
| 20260504081015 | 38 | 338 | 9.6 | 14.8 | 0.14 | 0.00 | 0.44 | 96 | 992.0 |
| 20260504080515 | 38 | 334 | 11.3 | 20.0 | 0.14 | 0.00 | 0.43 | 95 | 992.0 |
| 20260504050515 | 36 | 353 | 13.0 | 25.2 | 0.19 | 0.00 | 0.25 | 97 | 988.0 |
| 20260504050013 | 37 | 354 | 19.1 | 30.4 | 0.19 | 0.00 | 0.23 | 97 | 988.0 |
| 20260504045511 | 37 | 349 | 15.6 | 29.5 | 0.19 | 0.00 | 0.21 | 98 | 988.0 |
| 20260504045012 | 37 | 17 | 13.9 | 28.7 | 0.19 | 0.00 | 0.19 | 98 | 988.0 |
| 20260504044512 | 37 | 345 | 17.4 | 27.8 | 0.12 | 0.00 | 0.17 | 98 | 988.0 |
| 20260504044012 | 37 | 9 | 13.0 | 29.5 | 0.07 | 0.00 | 0.16 | 98 | 988.0 |
| 20260504043512 | 37 | 8 | 19.1 | 26.9 | 0.12 | 0.00 | 0.15 | 98 | 988.0 |
| 20260504043011 | 37 | 15 | 20.9 | 31.3 | 0.09 | 0.00 | 0.14 | 98 | 988.0 |
| 20260504042513 | 37 | 28 | 16.5 | 35.6 | 0.12 | 0.00 | 0.13 | 98 | 988.0 |
| 20260504042015 | 37 | 1 | 21.7 | 38.2 | 0.12 | 0.00 | 0.12 | 98 | 988.0 |
| 20260504041512 | 37 | 13 | 21.7 | 30.4 | 0.07 | 0.00 | 0.11 | 98 | 988.0 |
| 20260504041012 | 37 | 10 | 16.5 | 30.4 | 0.02 | 0.00 | 0.10 | 98 | 988.0 |
| 20260504040512 | 37 | 1 | 28.7 | 37.4 | 0.05 | 0.00 | 0.10 | 98 | 988.0 |
| 20260504040012 | 37 | 5 | 17.4 | 30.4 | 0.02 | 0.00 | 0.09 | 98 | 988.0 |
| 20260504035512 | 37 | 22 | 16.5 | 33.9 | 0.05 | 0.00 | 0.09 | 98 | 988.0 |
| 20260504035013 | 37 | 3 | 20.9 | 28.7 | 0.07 | 0.00 | 0.09 | 98 | 988.0 |
| 20260504034511 | 37 | 343 | 19.1 | 33.9 | 0.05 | 0.00 | 0.08 | 98 | 988.0 |
| 20260504034013 | 37 | 11 | 20.9 | 25.2 | 0.05 | 0.00 | 0.08 | 98 | 988.0 |
| 20260504033515 | 37 | 2 | 15.6 | 31.3 | 0.05 | 0.00 | 0.08 | 98 | 988.0 |
| 20260504033012 | 37 | 9 | 20.9 | 28.7 | 0.07 | 0.00 | 0.07 | 98 | 988.0 |
| 20260504032512 | 37 | 38 | 20.0 | 30.4 | 0.07 | 0.00 | 0.06 | 98 | 988.0 |
| 20260504032011 | 37 | 5 | 16.5 | 32.2 | 0.14 | 0.00 | 0.06 | 98 | 988.0 |
| 20260504031513 | 37 | 7 | 14.8 | 33.0 | 0.17 | 0.00 | 0.05 | 98 | 988.0 |
| 20260504031017 | 37 | 14 | 22.6 | 28.7 | 0.17 | 0.00 | 0.04 | 99 | 988.0 |
| 20260504030511 | 37 | 8 | 30.4 | 31.3 | 0.19 | 0.00 | 0.02 | 99 | 988.0 |
| 20260504030011 | 36 | 24 | 20.9 | 34.8 | 0.19 | 0.00 | 2.26 | 99 | 988.0 |
| 20260504025512 | 36 | 34 | 11.3 | 31.3 | 0.21 | 0.00 | 2.24 | 99 | 988.0 |
| 20260504025011 | 36 | 16 | 23.5 | 30.4 | 0.17 | 0.00 | 2.22 | 99 | 988.0 |
| 20260504024513 | 36 | 24 | 24.3 | 37.4 | 0.14 | 0.00 | 2.21 | 99 | 988.0 |
| 20260504024011 | 36 | 20 | 20.9 | 40.8 | 0.17 | 0.00 | 2.19 | 99 | 988.0 |
| 20260504023512 | 36 | 10 | 16.5 | 33.0 | 0.14 | 0.00 | 2.18 | 99 | 989.0 |
| 20260504023018 | 36 | 46 | 18.2 | 29.5 | 0.14 | 0.00 | 2.17 | 99 | 989.0 |
| 20260504022511 | 36 | 3 | 9.6 | 40.8 | 0.17 | 0.00 | 2.15 | 99 | 989.0 |
| 20260504022011 | 35 | 50 | 30.4 | 34.8 | 0.14 | 0.00 | 2.14 | 99 | 989.0 |
| 20260504021511 | 35 | 58 | 8.7 | 32.2 | 0.17 | 0.00 | 2.13 | 99 | 989.0 |
| 20260504021011 | 35 | 33 | 22.6 | 34.8 | 0.17 | 0.00 | 2.11 | 99 | 990.0 |
| 20260504020512 | 35 | 39 | 22.6 | 33.9 | 0.17 | 0.00 | 2.10 | 99 | 990.0 |
| 20260504020011 | 35 | 32 | 27.8 | 28.7 | 0.19 | 0.00 | 2.08 | 99 | 990.0 |
| 20260504015511 | 35 | 56 | 21.7 | 33.9 | 0.14 | 0.00 | 2.06 | 99 | 990.0 |
| 20260504015012 | 35 | 50 | 10.4 | 38.2 | 0.12 | 0.00 | 2.05 | 99 | 990.0 |
| 20260504014512 | 35 | 60 | 17.4 | 32.2 | 0.14 | 0.00 | 2.04 | 99 | 990.0 |
| 20260504013603 | 35 | 71 | 14.8 | 29.5 | 0.12 | 0.00 | 2.01 | 99 | 991.0 |
| 20260504013012 | 35 | 51 | 16.5 | 32.2 | 0.17 | 0.00 | 2.00 | 99 | 991.0 |
| 20260504012520 | 35 | 65 | 20.0 | 33.9 | 0.14 | 0.00 | 1.99 | 99 | 991.0 |
| 20260504012012 | 35 | 52 | 22.6 | 36.5 | 0.14 | 0.00 | 1.97 | 99 | 991.0 |
| 20260504011512 | 35 | 78 | 15.6 | 30.4 | 0.14 | 0.00 | 1.96 | 99 | 991.0 |
| 20260504011011 | 35 | 40 | 15.6 | 33.9 | 0.14 | 0.00 | 1.95 | 99 | 991.0 |
| 20260504010512 | 35 | 61 | 19.1 | 34.8 | 0.17 | 0.00 | 1.93 | 99 | 991.0 |
| 20260504010012 | 35 | 32 | 27.8 | 34.8 | 0.17 | 0.00 | 1.92 | 98 | 991.0 |
| 20260504005511 | 35 | 56 | 16.5 | 36.5 | 0.17 | 0.00 | 1.91 | 98 | 991.0 |
| 20260504005011 | 36 | 49 | 27.8 | 33.0 | 0.17 | 0.00 | 1.89 | 99 | 991.0 |
| 20260504004511 | 36 | 70 | 30.4 | 43.4 | 0.19 | 0.00 | 1.88 | 99 | 991.0 |
| 20260504004011 | 36 | 65 | 21.7 | 35.6 | 0.21 | 0.00 | 1.86 | 99 | 991.0 |
| 20260504003512 | 36 | 45 | 26.1 | 36.5 | 0.21 | 0.00 | 1.84 | 99 | 991.0 |
| 20260504003011 | 36 | 55 | 30.4 | 41.7 | 0.24 | 0.00 | 1.82 | 99 | 991.0 |
| 20260504002511 | 36 | 52 | 17.4 | 31.3 | 0.31 | 0.00 | 1.80 | 99 | 992.0 |
| 20260504002012 | 36 | 43 | 14.8 | 33.9 | 0.35 | 0.00 | 1.78 | 99 | 992.0 |
| 20260504001514 | 36 | 65 | 13.0 | 36.5 | 0.38 | 0.00 | 1.75 | 99 | 992.0 |
| 20260504001012 | 36 | 52 | 19.1 | 30.4 | 0.47 | 0.00 | 1.72 | 98 | 992.0 |
| 20260504000511 | 36 | 28 | 18.2 | 34.8 | 0.35 | 0.00 | 1.67 | 99 | 992.0 |
| 20260504000013 | 36 | 53 | 25.2 | 29.5 | 0.31 | 0.00 | 1.63 | 99 | 992.0 |
| 20260503235512 | 36 | 54 | 15.6 | 32.2 | 0.35 | 0.00 | 1.60 | 99 | 992.0 |
| 20260503234527 | 36 | 60 | 14.8 | 33.0 | 0.26 | 0.00 | 1.54 | 99 | 992.0 |
| 20260503234012 | 36 | 69 | 23.5 | 32.2 | 0.28 | 0.00 | 1.52 | 98 | 993.0 |
| 20260503233511 | 36 | 53 | 20.9 | 33.0 | 0.26 | 0.00 | 1.50 | 98 | 993.0 |
| 20260503233012 | 36 | 49 | 26.9 | 33.0 | 0.26 | 0.00 | 1.47 | 98 | 993.0 |
| 20260503232512 | 36 | 37 | 25.2 | 35.6 | 0.21 | 0.00 | 1.45 | 98 | 993.0 |